Wetbulb
52.53 52.69 53.41 54.75 55.23 55.00 54.18 55.04 55.06 54.94 54.77 54.44 54.80 54.92 54.49 54.93 56.57 57.07 57.11 57.50 57.77 57.89 57.61 57.52 57.53 57.01 56.72 53.32 53.30 61.10 62.78 63.06 60.09 59.02 56.60 54.01 52.12 51.57 50.14 51.21 51.64 50.32 52.26 53.52 54.10 54.29 54.70
51.79 51.91 52.31 52.86 53.49 54.59 54.83 54.85 54.51 54.05 54.28 54.19 54.13 54.55 54.77 54.82 55.53 56.23 56.33 56.56 57.14 57.36 57.37 57.33 57.21 55.80 54.76 48.59 56.15 57.39 59.64 61.49 59.97 58.19 55.87 54.83 53.72 55.04 52.77 51.64 50.86 53.92 53.75 53.72 54.42 53.97 54.98
52.03 51.58 51.49 52.47 52.98 52.81 53.49 54.71 54.20 53.96 53.87 54.14 53.95 53.86 54.24 54.59 54.55 55.13 55.64 55.90 56.38 56.80 57.14 56.97 56.62 56.62 52.69 52.07 57.71 58.45 58.73 58.80 59.37 57.63 54.92 56.85 56.81 54.63 54.75 51.66 53.87 53.74 50.75 52.43 52.86 54.28 52.53
52.21 52.04 51.85 52.06 52.25 52.41 52.66 53.71 54.24 54.03 53.85 53.67 53.87 53.86 53.45 53.79 53.79 54.28 54.87 55.17 55.94 56.82 56.96 56.32 56.15 56.71 51.30 57.87 58.72 56.32 57.89 59.15 59.87 59.06 57.69 58.20 58.31 56.15 54.23 54.98 52.36 49.75 50.88 45.88 49.41 53.50 53.30
53.19 52.67 52.24 52.42 52.25 51.95 52.06 52.31 53.53 54.02 53.95 53.53 53.38 53.28 53.14 52.92 53.46 53.93 54.00 54.81 55.74 56.88 56.18 55.70 56.23 55.50 50.38 56.54 53.84 55.73 56.08 55.80 58.75 58.47 59.10 58.29 57.42 54.21 54.28 49.29 47.35 48.79 43.95 46.06 48.28 52.64 51.87
51.56 52.09 53.58 53.29 52.85 52.70 52.15 52.10 52.02 53.48 53.60 53.35 53.29 52.98 53.08 52.94 53.25 53.55 53.47 54.55 56.76 55.70 55.84 58.15 57.06 51.18 53.70 51.33 54.73 55.15 56.14 56.32 56.09 56.62 55.74 54.88 53.62 51.03 51.15 48.63 41.96 43.18 44.86 45.30 45.54 50.40 51.28
50.81 50.89 51.14 52.65 53.40 53.03 52.54 52.41 52.11 52.39 53.19 53.44 53.10 53.07 52.73 53.16 53.11 53.65 54.82 57.87 54.30 53.71 55.41 50.27 51.53 49.85 50.98 53.97 57.32 55.12 55.70 54.86 55.86 54.68 49.87 52.79 49.20 47.16 49.17 50.53 49.21 47.82 46.59 45.91 48.38 50.81 48.79
50.23 50.13 50.37 50.72 51.39 52.90 52.31 52.36 51.94 51.63 52.32 53.11 52.98 52.48 52.46 52.99 53.00 53.95 56.10 52.94 53.45 54.40 47.52 52.98 52.88 52.83 55.29 55.57 51.68 53.72 57.67 52.00 51.67 48.86 51.63 50.50 47.09 51.13 51.16 49.31 47.93 47.35 46.10 46.32 49.01 49.89 49.10
50.75 50.73 50.09 50.29 50.47 50.78 52.10 52.62 52.14 51.74 51.69 52.05 52.84 52.63 52.33 52.51 53.13 53.48 54.48 54.65 58.76 57.55 48.89 48.60 50.96 50.66 51.47 53.55 50.93 52.05 54.68 52.84 50.36 48.69 49.17 47.53 49.72 51.89 49.96 48.65 47.30 47.86 46.70 46.94 46.13 49.41 50.16
50.13 50.13 50.30 49.96 50.18 51.03 51.68 52.74 52.45 51.93 51.34 51.27 52.38 51.94 51.65 51.80 49.29 53.71 53.46 58.25 59.35 58.67 43.65 43.89 48.83 51.19 51.68 52.23 48.82 54.42 55.56 52.60 50.91 47.97 49.29 48.62 51.31 49.64 48.96 47.75 49.00 45.47 49.97 48.13 47.38 46.57 39.92
49.73 49.92 50.07 50.49 50.66 50.70 50.81 51.38 52.15 52.01 51.57 51.13 51.95 51.86 51.40 50.84 49.89 51.80 56.26 60.15 60.04 55.98 30.36 46.26 48.35 55.26 52.37 49.27 48.48 50.22 55.94 52.29 48.36 48.75 49.13 46.63 48.12 48.59 47.25 47.95 49.82 46.90 49.85 48.44 48.48 47.12 46.51
49.37 49.69 50.05 50.33 50.31 50.29 50.71 50.77 51.09 51.34 51.25 50.81 50.79 51.62 51.21 49.85 51.28 51.46 56.95 58.75 57.51 41.79 30.99 42.91 48.94 46.88 47.57 48.57 48.47 50.70 51.52 53.76 52.94 49.26 49.44 48.78 52.34 50.93 49.74 50.51 50.75 51.09 48.64 48.85 48.98 47.45 41.01
49.09 49.40 49.78 49.98 50.12 50.40 50.65 50.74 50.80 50.87 50.80 50.76 50.40 51.01 51.02 51.50 46.84 54.57 55.30 53.05 40.15 33.55 43.23 41.55 44.96 47.27 46.64 45.65 46.51 48.17 47.38 47.16 45.41 42.80 43.48 46.88 48.11 50.68 51.52 48.28 50.78 49.67 47.17 40.96 38.85 39.30 38.68
49.18 49.20 49.48 49.67 50.05 50.03 50.38 50.59 50.63 50.37 50.63 50.35 50.11 50.43 50.20 50.13 53.56 53.25 50.38 43.21 32.54 39.35 40.67 46.72 46.20 47.47 43.31 45.92 44.88 46.91 46.14 45.03 48.20 47.23 44.71 41.90 40.53 47.93 50.86 49.26 47.37 47.60 47.40 41.52 34.09 36.12 39.66
49.37 49.40 49.52 49.61 49.93 50.04 50.20 50.35 50.56 50.45 50.34 49.99 49.75 49.66 48.47 51.42 53.46 52.11 42.85 33.42 35.32 40.09 43.82 42.70 45.06 43.97 42.42 45.13 44.46 45.31 45.59 45.21 47.01 48.42 43.57 42.58 42.67 49.75 50.34 51.04 50.53 47.79 44.87 49.61 43.71 43.51 40.05
49.63 49.59 49.61 49.70 49.66 49.86 49.97 50.06 50.21 50.46 50.18 49.77 46.72 46.62 45.82 52.59 53.49 49.61 37.97 34.28 40.00 43.86 44.09 45.50 40.13 45.13 41.44 42.43 42.14 43.18 44.49 47.17 46.78 49.31 50.59 46.85 42.16 47.52 49.06 50.98 50.89 49.21 51.18 43.23 44.20 35.46 34.09
49.27 49.38 49.42 49.33 49.39 49.35 49.61 49.97 50.14 50.33 49.95 49.66 45.04 40.46 47.67 52.67 51.59 42.72 32.02 37.05 41.64 45.58 46.25 44.52 43.35 42.23 44.28 43.82 43.46 41.89 43.69 47.00 48.39 48.56 50.09 48.88 46.23 45.24 48.59 46.53 45.68 46.52 46.01 46.95 46.69 43.80 37.65
48.55 48.76 48.98 49.06 49.27 49.23 49.49 49.91 49.99 50.25 49.81 47.95 42.54 35.12 48.35 52.55 36.02 37.68 34.11 39.38 42.70 43.74 47.05 46.61 47.45 46.72 44.38 45.36 43.53 42.21 41.19 46.46 49.48 49.71 46.46 49.24 46.71 42.21 44.46 49.33 50.18 49.92 47.22 47.34 41.94 40.27 43.17
48.36 48.56 48.87 49.13 49.17 49.18 49.18 49.56 49.81 49.75 49.60 45.39 38.44 38.99 49.78 49.66 31.57 34.04 38.84 39.09 41.89 42.49 43.75 45.45 45.09 47.15 48.46 46.28 41.89 44.13 44.22 48.51 49.63 49.29 48.05 49.13 44.56 39.85 41.88 45.71 48.71 46.58 48.41 48.87 48.19 46.92 41.93
48.23 48.28 48.58 49.23 49.31 49.26 49.13 49.35 49.71 49.54 49.78 45.98 38.71 33.20 40.14 42.68 42.58 38.31 36.68 37.08 37.60 43.23 43.43 45.20 45.79 47.55 46.31 45.19 47.70 43.23 44.41 47.24 50.56 49.87 48.35 50.21 46.14 43.22 39.11 42.51 46.20 43.59 45.46 47.43 46.86 43.22 42.41
48.16 48.47 48.71 48.87 49.23 49.23 49.38 49.36 49.50 49.58 49.41 45.39 38.58 36.84 41.05 31.72 35.25 39.35 39.51 38.70 37.15 37.20 42.95 44.57 43.78 45.58 44.98 42.47 43.64 43.76 44.65 46.29 47.57 48.38 49.76 49.28 43.27 44.84 45.03 46.24 46.17 45.21 44.99 45.39 44.57 45.35 42.36
48.53 48.60 48.51 48.56 49.21 49.45 49.13 49.02 49.32 49.32 49.37 42.77 34.89 38.68 40.46 40.30 39.65 38.39 38.37 37.25 37.23 38.97 40.65 40.16 41.60 44.48 45.94 43.57 44.73 42.70 44.37 44.73 44.78 48.36 47.97 49.68 43.60 45.07 42.81 45.59 45.57 43.62 44.93 45.52 45.27 45.19 45.00
47.52 47.49 47.74 47.78 48.15 48.68 49.18 48.66 48.67 49.08 48.88 41.26 42.49 46.15 43.24 38.30 38.07 36.67 38.17 38.23 37.99 40.67 42.45 43.95 43.82 43.69 44.21 46.35 49.27 48.32 47.72 46.79 47.17 47.82 47.06 47.11 45.79 43.19 39.36 44.50 44.49 40.55 43.68 44.99 45.73 47.08 46.67
47.11 47.39 47.53 47.74 47.86 48.24 48.37 48.64 48.56 48.90 48.66 44.72 45.99 44.64 40.33 35.22 37.23 38.16 38.89 39.82 39.21 40.04 39.68 43.54 45.57 44.23 47.44 52.24 50.53 49.03 47.37 45.60 46.00 47.02 49.25 46.52 45.53 44.73 40.88 40.01 33.89 44.44 48.93 48.47 46.61 47.55 48.87
46.24 46.41 46.90 47.30 47.56 47.70 47.77 48.03 48.52 48.79 48.90 45.15 47.27 44.84 41.06 36.92 39.28 38.58 39.50 39.84 41.25 41.88 41.13 42.69 45.78 48.64 51.99 48.89 43.28 39.49 38.08 38.99 42.68 45.99 47.10 48.89 46.45 43.26 39.05 39.27 42.13 44.44 46.13 45.85 45.65 45.43 49.63
47.09 46.52 46.50 46.42 46.74 47.13 47.30 47.37 47.60 48.09 48.96 45.83 46.69 50.18 45.34 39.76 38.59 41.66 39.19 40.91 38.69 39.10 40.27 43.13 48.49 51.60 50.44 45.57 41.42 34.81 31.60 35.33 37.45 41.63 47.38 47.64 47.94 44.69 41.70 36.08 33.46 43.74 48.10 50.42 50.40 42.67 50.71
46.28 46.77 46.63 46.56 46.10 46.64 47.15 47.30 47.49 47.51 48.59 46.03 45.25 50.44 46.47 40.26 42.97 42.94 39.50 40.09 43.25 42.04 40.50 42.45 46.37 47.21 50.46 43.28 38.86 36.95 35.35 40.84 34.73 36.87 38.55 41.04 41.35 40.35 40.27 38.89 42.26 48.15 49.76 51.51 41.26 43.18 51.54
45.93 46.07 46.33 46.56 46.31 46.29 46.87 47.20 47.25 47.02 47.90 45.85 44.76 50.18 47.50 41.92 42.90 45.36 45.37 42.76 43.38 42.85 39.99 43.71 43.65 44.40 45.12 40.57 39.45 39.85 40.08 39.71 38.73 41.00 41.22 40.63 39.53 39.73 41.90 39.42 36.60 50.28 47.54 44.55 50.37 53.44 53.26
45.24 45.29 45.96 46.24 46.22 46.45 46.68 46.98 47.25 47.15 47.69 46.79 43.36 49.82 50.52 45.20 43.65 49.10 49.34 49.49 48.91 47.64 46.04 44.94 45.15 45.68 46.26 42.93 44.23 43.95 42.69 43.04 40.59 35.99 44.64 38.09 44.87 42.61 44.17 44.28 51.75 51.29 51.35 52.62 53.64 53.19 54.03
MSLP
1022.92 1022.79 1022.82 1022.64 1022.33 1022.12 1022.10 1021.99 1022.01 1021.80 1021.70 1021.45 1021.38 1021.32 1021.10 1020.71 1020.40 1020.12 1019.65 1019.39 1019.07 1018.93 1018.64 1018.35 1017.84 1017.24 1015.99 1013.03 1010.22 1010.21 1010.92 1011.24 1011.21 1010.80 1009.75 1008.83 1008.30 1007.63 1006.53 1005.83 1005.85 1005.78 1005.34 1005.49 1005.52 1005.69 1005.52
1022.65 1022.54 1022.53 1022.42 1022.30 1022.03 1021.82 1021.75 1021.72 1021.76 1021.54 1021.37 1021.13 1021.13 1020.95 1020.66 1020.25 1019.97 1019.59 1019.14 1018.81 1018.49 1018.37 1018.12 1017.73 1017.42 1015.63 1012.51 1009.67 1009.69 1009.95 1010.50 1009.84 1009.90 1009.17 1008.49 1007.68 1007.16 1006.84 1006.28 1005.96 1005.73 1005.81 1005.32 1005.35 1005.24 1005.27
1022.23 1022.18 1022.07 1021.93 1021.90 1021.81 1021.74 1021.68 1021.47 1021.47 1021.33 1021.21 1020.91 1020.82 1020.68 1020.48 1020.05 1019.74 1019.28 1018.86 1018.53 1018.15 1017.99 1017.76 1017.63 1016.84 1014.42 1011.17 1009.54 1009.37 1009.83 1009.60 1009.09 1008.96 1008.21 1008.07 1007.82 1007.57 1006.61 1006.35 1006.08 1006.07 1005.61 1006.37 1005.96 1004.78 1004.76
1021.66 1021.69 1021.60 1021.48 1021.40 1021.37 1021.32 1021.41 1021.38 1021.07 1020.97 1020.89 1020.68 1020.55 1020.35 1020.25 1019.87 1019.36 1019.04 1018.37 1018.02 1017.68 1017.63 1017.35 1017.24 1015.95 1012.54 1009.51 1009.46 1009.42 1009.23 1009.18 1008.97 1008.68 1008.48 1008.03 1008.14 1007.78 1007.14 1006.45 1006.37 1005.79 1004.94 1004.82 1006.23 1005.52 1004.76
1021.07 1021.09 1021.01 1020.91 1020.80 1020.96 1021.02 1020.99 1021.06 1020.70 1020.64 1020.55 1020.38 1020.34 1020.02 1019.96 1019.77 1019.05 1018.53 1017.91 1017.35 1017.22 1017.27 1017.01 1016.36 1014.96 1010.70 1009.70 1009.34 1008.78 1008.73 1008.37 1008.37 1008.51 1008.55 1008.54 1008.30 1007.49 1006.68 1006.58 1005.60 1004.60 1004.00 1004.70 1004.25 1004.35 1004.28
1020.46 1020.37 1020.39 1020.36 1020.41 1020.39 1020.50 1020.69 1020.36 1020.42 1020.46 1020.25 1020.15 1019.97 1019.75 1019.67 1019.56 1018.97 1018.19 1017.23 1016.19 1016.74 1016.56 1015.52 1014.84 1014.11 1009.98 1007.92 1007.52 1007.70 1007.91 1008.04 1007.61 1008.02 1008.25 1008.30 1007.68 1006.96 1006.24 1005.51 1004.14 1003.98 1003.67 1003.83 1003.87 1004.23 1004.21
1020.03 1019.97 1019.86 1019.83 1019.76 1019.93 1020.03 1020.06 1020.03 1020.04 1020.17 1020.00 1019.90 1019.58 1019.45 1019.43 1019.29 1018.90 1018.00 1015.60 1015.32 1014.99 1014.12 1012.27 1010.81 1009.83 1008.52 1007.71 1007.87 1007.37 1007.00 1007.65 1007.36 1007.35 1007.20 1006.96 1006.47 1005.48 1004.41 1004.20 1004.40 1004.17 1003.68 1003.50 1003.36 1003.49 1003.99
1019.41 1019.33 1019.27 1019.24 1019.29 1019.32 1019.31 1019.37 1019.49 1019.59 1019.61 1019.71 1019.52 1019.35 1019.21 1019.20 1019.09 1018.77 1018.07 1015.49 1013.92 1014.77 1012.79 1010.96 1010.44 1009.56 1008.66 1008.33 1007.16 1006.43 1006.71 1006.91 1006.77 1006.21 1006.30 1005.72 1005.35 1004.70 1004.42 1004.61 1004.61 1004.63 1004.15 1003.51 1003.31 1003.43 1003.99
1018.70 1018.63 1018.61 1018.62 1018.71 1018.73 1018.69 1018.69 1018.87 1018.95 1019.01 1019.17 1019.22 1019.15 1019.03 1019.17 1018.91 1018.26 1016.67 1014.82 1014.23 1014.59 1012.55 1008.89 1007.90 1007.68 1007.50 1008.17 1006.89 1005.57 1006.06 1005.85 1005.65 1005.59 1005.14 1004.72 1004.28 1004.26 1004.84 1004.77 1004.80 1004.46 1003.99 1003.64 1003.56 1003.36 1003.34
1017.92 1017.80 1017.77 1017.85 1017.87 1017.91 1018.01 1018.06 1018.19 1018.35 1018.48 1018.66 1018.71 1018.82 1018.96 1019.13 1019.18 1016.15 1015.04 1014.21 1014.50 1014.57 1011.54 1007.16 1006.44 1005.40 1006.19 1006.72 1005.88 1005.36 1005.11 1005.21 1004.76 1004.67 1004.55 1004.38 1004.14 1004.52 1004.65 1004.49 1004.43 1003.81 1003.70 1004.18 1004.07 1003.46 1004.12
1016.74 1016.72 1016.75 1016.82 1017.01 1017.20 1017.32 1017.36 1017.47 1017.63 1017.84 1018.05 1018.35 1018.60 1018.81 1018.89 1017.60 1015.90 1014.06 1014.41 1014.45 1014.27 1009.98 1004.60 1005.15 1004.95 1004.79 1005.00 1003.13 1003.73 1004.12 1004.57 1004.04 1004.00 1004.31 1003.70 1003.77 1004.02 1004.21 1004.24 1004.31 1004.14 1004.33 1004.38 1004.09 1003.59 1002.85
1015.57 1015.52 1015.53 1015.66 1015.87 1016.04 1016.24 1016.49 1016.70 1016.92 1017.29 1017.54 1017.89 1018.19 1018.37 1018.36 1017.67 1016.67 1015.44 1015.07 1014.31 1012.31 1007.20 1004.71 1004.80 1004.99 1004.85 1004.76 1003.31 1002.39 1003.41 1004.13 1004.01 1003.89 1003.74 1003.35 1003.46 1003.64 1003.63 1003.78 1004.27 1004.17 1004.61 1004.50 1004.21 1003.67 1002.76
1014.24 1014.26 1014.33 1014.44 1014.64 1014.91 1015.19 1015.50 1015.75 1016.14 1016.57 1016.92 1017.34 1017.62 1017.90 1017.27 1016.65 1015.77 1016.00 1015.46 1013.12 1009.03 1005.21 1003.75 1003.82 1004.54 1004.18 1003.87 1003.44 1002.59 1002.57 1002.89 1002.80 1003.03 1002.80 1003.31 1002.99 1003.45 1003.69 1003.74 1004.12 1004.43 1004.19 1003.49 1003.69 1003.13 1002.41
1012.91 1012.90 1012.97 1013.15 1013.35 1013.61 1013.95 1014.32 1014.75 1015.18 1015.70 1016.26 1016.71 1017.11 1016.91 1016.74 1016.51 1016.47 1016.61 1014.93 1010.17 1005.38 1004.61 1003.61 1003.48 1003.95 1003.66 1003.19 1003.12 1002.52 1002.21 1002.31 1002.66 1002.40 1002.16 1002.25 1002.20 1002.55 1003.25 1003.07 1003.15 1003.51 1003.50 1003.14 1003.16 1002.93 1002.35
1011.26 1011.31 1011.42 1011.61 1011.86 1012.18 1012.55 1013.02 1013.55 1014.12 1014.80 1015.52 1016.17 1016.27 1015.84 1015.78 1016.10 1016.53 1016.44 1012.69 1007.02 1004.59 1002.99 1003.29 1003.26 1003.45 1003.34 1002.88 1002.79 1002.31 1001.72 1001.36 1001.43 1001.44 1001.22 1001.13 1001.27 1001.65 1002.28 1002.91 1002.81 1002.52 1002.99 1002.96 1003.34 1003.64 1003.18
1009.44 1009.51 1009.66 1009.94 1010.29 1010.66 1011.16 1011.73 1012.36 1013.08 1013.84 1014.80 1015.44 1014.96 1014.19 1014.96 1015.77 1016.08 1015.05 1010.87 1007.06 1004.76 1003.80 1003.22 1002.50 1002.53 1002.20 1002.47 1002.55 1001.71 1001.11 1000.51 1000.60 1001.03 1001.16 1000.88 1001.02 1001.40 1002.13 1002.70 1002.78 1002.76 1002.96 1003.31 1003.52 1003.23 1002.97
1007.58 1007.70 1007.90 1008.21 1008.60 1009.08 1009.63 1010.31 1011.10 1011.87 1012.84 1013.95 1014.81 1013.83 1012.80 1014.32 1015.71 1015.19 1012.76 1009.23 1007.94 1005.46 1003.86 1003.17 1002.99 1002.29 1001.97 1001.93 1002.04 1001.77 1000.79 1000.26 1000.19 1000.45 1000.96 1000.93 1001.13 1001.41 1002.16 1002.36 1001.98 1002.82 1002.73 1002.67 1002.56 1003.15 1002.60
1005.65 1005.76 1005.98 1006.33 1006.78 1007.38 1008.03 1008.76 1009.68 1010.64 1011.78 1013.10 1013.37 1012.30 1012.07 1013.55 1014.77 1013.07 1011.73 1009.04 1008.04 1006.48 1004.38 1003.45 1003.50 1002.40 1001.95 1002.21 1001.93 1001.96 1001.50 1000.07 1000.40 1000.07 1000.36 1000.88 1001.24 1000.94 1001.54 1001.85 1001.83 1001.37 1002.03 1002.38 1002.36 1002.53 1002.62
1003.50 1003.64 1003.87 1004.26 1004.84 1005.56 1006.28 1007.11 1008.07 1009.16 1010.26 1011.46 1011.77 1011.75 1011.63 1011.99 1010.91 1010.54 1009.16 1008.31 1008.06 1006.59 1004.78 1003.50 1003.27 1003.20 1002.92 1002.57 1002.22 1001.65 1001.67 1001.23 1000.69 1000.25 1000.15 1001.05 1001.04 1001.25 1001.10 1001.60 1001.72 1001.36 1001.40 1001.42 1001.91 1002.19 1002.00
1001.19 1001.39 1001.66 1002.06 1002.70 1003.48 1004.41 1005.31 1006.36 1007.54 1008.87 1010.37 1010.98 1010.65 1010.76 1010.41 1008.91 1007.80 1006.80 1006.52 1006.94 1006.83 1005.26 1003.92 1003.35 1003.03 1002.95 1002.70 1002.39 1001.92 1001.61 1001.95 1001.59 1000.95 1000.72 1001.18 1000.80 1000.71 1000.36 1000.28 1000.99 1001.33 1001.26 1001.30 1001.51 1001.58 1001.91
998.85 999.06 999.38 999.87 1000.44 1001.33 1002.32 1003.39 1004.59 1005.88 1007.24 1008.86 1008.91 1007.13 1006.55 1006.95 1006.88 1006.30 1006.78 1006.15 1005.39 1005.02 1005.32 1004.87 1003.54 1002.59 1002.66 1002.46 1002.33 1002.15 1002.74 1002.46 1002.64 1001.66 1001.37 1001.27 1000.65 1000.80 1000.70 1000.21 999.96 1000.04 1000.40 1000.83 1000.87 1001.08 1000.93
996.52 996.80 997.22 997.71 998.38 999.16 1000.26 1001.38 1002.66 1004.14 1005.54 1006.63 1006.48 1004.65 1005.28 1004.91 1006.65 1005.95 1005.67 1005.07 1004.37 1004.49 1004.39 1003.82 1003.53 1002.83 1002.76 1002.48 1002.55 1002.49 1003.30 1003.48 1002.09 1002.01 1001.61 1001.18 1000.75 1001.15 1000.59 1000.53 1000.24 999.91 999.92 1000.03 999.97 1000.01 1000.03
994.84 995.10 995.48 995.93 996.62 997.37 998.26 999.27 1000.68 1002.03 1003.37 1003.26 1004.93 1004.21 1003.63 1004.36 1004.66 1005.42 1003.44 1003.27 1003.35 1003.90 1003.32 1003.38 1003.53 1003.41 1002.44 1002.56 1003.26 1004.17 1004.20 1004.61 1003.54 1002.49 1001.66 1001.24 1001.31 1000.96 1000.68 1000.71 1000.47 999.85 999.82 999.78 999.64 999.56 999.57
992.81 993.11 993.56 994.22 994.99 995.75 996.64 997.46 998.57 999.84 1000.75 1001.96 1002.50 1002.58 1002.88 1002.36 1003.22 1001.73 1003.20 1003.39 1002.92 1002.78 1002.76 1002.63 1002.88 1002.75 1002.69 1003.03 1004.33 1005.11 1004.77 1005.12 1004.46 1003.37 1002.38 1001.50 1001.37 1001.41 1001.48 1001.66 1000.34 999.98 1000.02 999.70 999.37 999.13 998.99
990.15 990.70 991.41 992.19 993.07 993.97 995.08 995.97 996.13 998.17 999.22 1001.01 1001.49 1001.51 1001.46 1001.68 1001.30 1002.16 1002.04 1002.30 1002.75 1002.83 1002.46 1002.18 1002.20 1002.83 1002.83 1003.83 1004.68 1005.27 1005.55 1005.57 1004.27 1003.38 1002.68 1002.49 1001.81 1001.56 1001.50 1001.23 1000.61 999.55 999.80 999.77 999.20 998.78 998.56
987.34 987.90 988.93 990.05 991.16 992.32 993.58 994.77 996.02 997.19 998.22 999.98 1000.44 1000.71 1001.04 1001.24 999.98 1000.91 1001.38 1001.80 1001.82 1002.00 1002.44 1001.81 1001.86 1002.54 1003.18 1003.25 1004.77 1004.63 1005.01 1005.63 1004.40 1003.21 1002.94 1002.67 1002.58 1002.09 1001.98 1001.22 999.86 999.80 999.23 999.51 999.06 998.13 998.26
985.08 985.68 986.74 987.82 989.30 990.78 992.19 993.60 995.04 996.54 997.78 999.30 1000.15 1000.42 1000.76 1000.10 1000.15 1000.21 1000.21 1000.62 1001.33 1001.38 1001.32 1001.71 1001.84 1002.69 1003.02 1003.47 1004.43 1003.95 1003.51 1003.89 1004.05 1003.43 1003.11 1002.96 1003.01 1002.39 1001.77 1000.82 999.43 998.67 998.43 998.92 998.90 998.47 997.81
983.36 984.04 985.04 986.34 987.80 989.41 991.03 992.58 994.08 995.67 997.35 998.96 999.62 1000.00 999.65 1000.10 1000.29 1000.43 1000.47 1000.38 1000.85 1000.89 1000.80 1001.24 1001.44 1002.55 1002.80 1003.21 1003.24 1002.78 1002.49 1003.13 1002.77 1002.48 1002.14 1002.08 1002.05 1001.96 1001.56 1000.55 999.64 999.00 999.34 998.82 998.18 998.07 997.98
981.04 981.87 983.47 985.04 986.65 988.30 989.96 991.69 993.18 994.98 996.79 998.83 999.17 999.83 1000.19 1000.54 1000.86 1001.12 1000.09 1000.84 1000.05 1000.21 1000.41 1000.82 1000.69 1000.64 1000.89 1001.72 1001.81 1002.03 1002.14 1002.30 1001.93 1001.42 1001.40 1002.36 1001.08 1000.77 1000.28 999.73 999.22 998.91 998.29 998.42 998.46 998.36 998.10
Wind_Speed
15 15 16 13 14 11 11 11 11 10 9 7 9 11 14 15 14 14 11 12 12 13 12 13 15 15 14 9 13 11 6 8 12 12 13 11 12 13 14 6 4 11 9 7 5 7 8
13 13 15 14 13 14 14 12 9 10 10 10 8 9 10 13 14 14 13 12 13 12 12 12 14 14 11 18 2 3 4 11 13 15 14 12 12 6 11 9 8 4 8 6 6 4 7
14 13 13 12 13 12 13 13 11 10 9 11 10 10 9 12 13 15 15 14 14 13 11 12 13 9 12 22 6 5 8 11 10 14 11 11 7 10 4 11 6 13 16 11 16 7 1
14 14 14 12 12 13 12 11 13 13 11 10 11 11 10 11 13 13 15 14 16 13 10 9 9 11 11 8 8 12 12 12 9 10 10 5 6 12 10 8 11 15 21 14 11 20 4
17 17 16 14 13 12 13 14 12 13 13 11 10 11 11 11 14 13 14 17 17 14 8 7 7 9 13 5 12 17 16 16 14 11 9 6 9 13 11 12 15 16 12 15 11 6 6
19 19 17 16 15 14 14 14 15 10 14 12 11 11 11 11 13 14 15 18 15 5 9 9 8 9 12 11 8 11 17 18 14 12 12 12 9 13 14 14 13 4 12 3 10 8 11
20 20 20 19 17 16 16 15 14 13 11 13 12 10 9 12 12 13 14 12 8 10 13 14 4 16 3 5 5 11 17 18 16 15 17 17 13 15 17 14 15 11 10 11 7 6 6
22 22 22 21 21 20 20 17 15 13 13 12 11 12 9 12 11 11 11 9 6 6 13 17 22 23 21 3 6 14 18 19 18 18 19 14 14 17 4 6 8 10 12 11 7 2 7
22 22 23 23 23 22 21 19 17 14 13 12 12 11 8 11 11 10 13 13 3 5 10 15 23 24 24 22 16 17 20 23 21 21 20 17 13 10 7 9 10 11 13 10 8 9 10
23 23 23 25 24 22 21 20 19 16 13 13 10 10 9 7 9 12 11 9 4 4 9 12 9 11 24 21 18 24 24 23 17 22 21 17 16 9 12 13 11 13 10 7 11 13 3
25 25 24 24 23 23 22 21 21 18 16 14 10 11 9 8 11 8 6 1 5 5 9 3 11 4 11 22 7 27 22 23 25 21 16 18 18 12 15 14 12 13 1 8 11 12 15
27 27 26 25 24 24 23 22 21 21 18 16 13 12 9 8 11 16 13 5 6 9 14 7 8 10 12 24 20 14 25 26 20 20 19 20 14 16 18 8 10 5 7 10 10 12 9
30 29 29 28 27 25 25 24 22 21 20 18 15 13 13 11 10 13 9 6 9 15 3 14 8 11 16 17 23 17 29 29 22 23 21 21 15 14 6 10 10 10 12 7 6 7 9
32 31 30 30 29 28 26 25 23 22 21 18 15 12 16 12 14 10 5 7 17 18 30 6 3 11 13 14 22 19 25 25 27 25 14 18 22 21 15 16 11 16 15 6 8 7 8
33 33 32 31 30 29 27 26 24 23 22 20 15 12 14 13 16 6 6 15 23 26 13 29 5 11 12 14 13 22 26 26 28 26 19 19 22 24 17 16 14 14 16 11 7 3 4
34 33 32 31 31 30 28 27 25 24 24 22 9 13 16 16 15 10 7 20 25 21 25 15 22 14 13 14 15 20 24 26 28 30 23 6 17 11 16 9 12 12 11 9 8 9 10
34 33 33 32 31 30 29 28 27 26 27 25 10 8 9 16 10 7 12 23 31 25 20 17 16 22 11 11 18 14 13 14 28 28 24 18 11 16 12 17 16 13 12 9 10 12 8
33 33 32 32 32 31 30 30 29 28 29 22 7 8 10 16 10 7 18 29 29 34 26 16 9 15 13 13 16 19 14 21 12 24 28 23 11 12 16 16 19 18 19 18 9 13 9
33 32 32 32 32 32 32 31 31 31 33 13 6 6 10 19 15 16 30 35 30 29 30 21 17 16 14 9 8 16 15 10 7 23 25 21 14 13 16 11 7 12 17 14 17 13 13
34 33 32 32 33 33 33 33 33 34 36 13 6 8 6 15 19 30 32 34 32 32 32 27 19 16 14 14 10 2 13 10 10 14 13 18 16 20 15 16 15 19 19 19 16 11 13
35 32 32 33 33 34 34 35 36 36 39 16 9 10 13 16 23 28 28 20 33 34 32 26 24 18 17 11 11 7 4 5 6 9 9 18 23 19 21 19 13 17 19 21 19 18 19
26 25 27 28 30 32 36 36 36 37 41 14 8 11 16 11 25 32 25 29 33 33 30 34 29 24 18 17 8 9 2 8 9 12 14 20 16 21 20 18 18 15 15 16 18 19 18
29 29 29 29 29 31 36 37 38 40 37 9 9 17 14 19 25 23 27 32 35 32 32 31 29 25 24 15 6 5 6 8 10 10 14 15 15 17 17 19 19 18 17 17 16 18 16
33 33 32 32 31 31 33 35 39 38 43 7 12 10 12 14 18 25 29 30 33 37 31 27 25 28 22 9 4 4 5 10 14 11 9 13 15 14 8 1 16 8 15 17 19 18 16
37 35 34 34 34 32 33 29 33 36 48 13 12 13 13 14 19 24 30 26 28 29 28 28 29 20 19 7 6 7 2 9 8 13 12 11 10 9 8 12 14 17 9 9 13 16 16
31 36 36 35 35 34 34 32 34 33 40 18 12 13 12 14 19 26 21 26 19 21 25 25 24 13 11 7 9 15 8 8 7 5 5 11 11 9 6 15 19 13 13 10 13 13 15
25 27 31 35 35 35 34 33 33 35 36 19 10 21 13 13 14 15 15 18 21 20 18 21 20 10 17 10 11 13 10 13 12 7 7 6 4 11 11 9 8 13 13 10 14 9 12
27 27 28 30 32 35 35 34 34 34 38 21 10 19 14 10 8 17 12 13 19 18 17 20 17 12 11 12 9 7 5 8 10 14 4 10 9 5 8 8 12 10 9 11 12 12 6
28 32 29 31 31 32 36 35 35 34 42 25 10 15 9 8 5 5 13 10 24 27 17 16 17 20 11 10 8 9 5 4 8 9 18 7 7 5 7 5 7 14 10 14 6 7 7
Wind_Direction
306 307 311 327 314 288 288 298 308 305 295 300 314 321 326 327 321 312 313 305 300 304 308 312 321 323 319 274 269 109 152 166 190 210 230 225 235 238 258 251 264 243 296 317 314 266 249
285 289 295 303 311 325 296 287 287 297 301 298 303 305 316 319 319 314 311 306 297 296 298 310 314 316 272 274 11 184 181 176 198 205 220 231 238 289 296 281 280 14 279 254 222 187 194
289 291 292 291 292 305 315 307 282 282 292 298 295 296 307 315 315 313 307 300 292 289 296 306 301 286 266 252 303 210 202 218 212 210 227 214 267 257 286 257 245 273 262 268 356 195 233
275 278 277 284 296 295 292 299 305 279 275 286 297 296 300 307 307 308 305 299 292 287 291 287 285 259 262 287 267 226 219 223 225 217 260 294 256 270 279 299 264 252 244 283 174 260 123
280 276 276 277 272 279 285 283 294 292 270 271 286 294 293 302 306 306 304 298 286 283 268 255 235 241 264 102 222 225 221 216 201 214 228 255 246 248 243 244 250 229 255 244 191 215 308
288 292 282 271 268 268 270 278 282 291 285 266 273 289 299 297 302 308 305 292 273 273 223 219 251 264 236 240 196 225 198 219 199 201 214 224 228 238 225 248 252 255 247 292 276 180 228
283 283 283 286 274 264 263 268 275 273 280 273 269 279 295 300 304 309 310 287 218 192 222 238 232 238 296 225 191 214 187 199 212 197 216 200 222 232 244 223 266 315 300 277 240 113 278
280 278 278 277 277 271 264 264 263 268 268 278 274 275 287 295 299 306 284 272 355 355 290 254 248 253 259 260 249 212 177 194 201 207 217 211 230 252 258 277 253 247 265 268 274 110 243
276 273 273 271 270 269 264 257 254 255 262 265 265 272 278 299 301 274 242 270 27 293 264 275 233 233 226 228 238 206 194 203 199 212 214 227 231 223 210 214 238 238 263 283 285 281 258
272 270 268 266 266 266 265 258 249 244 245 257 252 253 267 302 279 242 234 234 246 244 271 251 207 233 217 217 229 234 188 209 211 216 223 221 244 207 220 244 235 264 221 260 273 267 74
272 269 265 261 258 255 252 253 247 243 239 243 237 239 240 217 328 274 47 85 216 218 278 77 157 97 186 195 195 195 204 209 218 213 215 220 226 202 229 238 245 265 185 248 261 275 284
268 267 265 262 257 253 250 246 244 236 232 231 234 229 225 234 251 262 301 307 195 225 238 205 157 196 189 208 238 172 194 211 218 222 222 233 201 218 230 238 253 233 225 237 244 249 247
265 264 263 261 257 253 249 244 240 236 229 221 227 219 224 241 248 233 246 259 209 230 180 220 192 189 199 199 222 214 188 195 200 209 209 218 198 212 226 206 189 206 223 224 208 203 250
262 260 259 256 253 250 246 241 235 229 221 215 216 210 228 231 242 266 312 218 222 223 231 98 219 186 207 209 210 192 192 200 209 208 201 208 210 205 187 227 189 209 225 215 226 228 240
258 256 254 251 248 246 242 237 232 223 212 206 206 220 227 215 238 239 253 210 222 220 198 229 180 214 202 219 212 202 211 209 202 204 223 203 218 197 200 210 246 202 221 264 273 251 297
257 254 252 247 244 240 236 232 226 218 203 193 204 223 219 214 215 222 231 243 234 229 235 232 224 210 206 204 209 203 210 207 209 212 218 223 212 194 175 217 221 270 220 208 228 253 236
257 252 248 245 241 236 232 226 219 211 199 186 203 217 194 203 193 212 230 233 229 246 241 212 230 244 229 199 210 226 225 221 209 204 215 220 234 178 160 208 207 201 234 232 242 234 250
254 249 245 241 238 233 228 222 214 206 193 181 194 207 158 168 190 211 225 225 245 228 252 218 273 269 232 233 211 216 215 225 217 213 206 216 205 218 213 222 226 203 207 219 238 242 223
252 249 244 238 233 229 223 219 210 203 187 174 192 168 186 182 197 210 224 225 234 238 243 221 221 240 221 236 239 213 234 268 196 218 203 206 220 219 214 186 221 242 243 235 225 246 258
252 246 244 238 231 224 221 216 210 200 186 178 171 168 182 207 212 205 214 216 213 233 253 243 222 229 224 233 230 274 215 213 294 243 199 217 209 219 220 211 201 214 234 232 239 232 244
256 246 242 240 230 222 216 212 208 199 184 175 188 205 177 193 208 221 221 230 211 209 232 248 233 226 224 231 227 204 229 196 242 244 232 214 222 220 230 243 234 214 214 226 233 241 245
250 243 236 229 223 219 210 207 204 198 182 187 178 201 185 194 202 218 219 217 222 214 209 229 238 230 234 238 256 141 335 218 214 194 226 210 221 228 236 233 242 241 237 236 241 235 247
248 242 235 229 226 220 213 205 206 198 183 173 206 212 186 205 196 204 214 218 218 213 219 217 223 238 225 231 130 41 75 319 322 306 217 208 219 222 230 234 235 238 238 250 247 246 242
247 239 232 227 223 217 214 209 201 194 188 158 191 190 205 200 198 214 213 219 219 220 215 215 226 226 235 127 85 313 341 338 308 276 269 232 212 223 207 252 230 235 234 241 243 253 245
241 235 228 222 217 212 208 201 198 196 186 180 182 201 198 208 204 211 212 215 222 215 234 209 216 239 233 172 226 254 284 345 264 258 242 244 225 228 208 220 244 234 199 218 239 250 254
244 228 223 219 213 208 204 200 194 191 192 173 196 197 203 195 221 201 202 212 215 213 216 230 213 199 242 212 214 230 203 184 265 255 233 229 244 224 181 232 237 236 237 214 255 254 256
239 222 218 213 207 204 198 194 193 187 192 176 190 196 199 210 223 218 212 196 211 210 208 209 198 172 201 193 217 225 197 184 218 232 161 174 205 221 217 238 245 224 221 166 222 242 260
232 222 208 202 201 196 191 188 188 182 185 176 176 202 194 193 218 226 245 196 206 214 204 207 179 185 197 196 210 216 211 190 218 213 209 187 193 187 229 237 232 129 125 190 215 251 260
236 214 197 189 186 189 183 182 185 182 175 171 170 190 199 194 204 305 235 317 207 213 210 213 200 186 190 202 210 220 208 148 211 222 205 232 258 232 219 219 265 181 220 219 277 304 263